Location: *
(50.3194°N, 7.1067°E)
Time: 16:05:30
(UTC+00:00)

In-Cosmos 22 - Pass Details

Date: 22 September 2019
Orbit: 785 x 877 km, 81.2° (Epoch: 13 October)

Event Time Altitude Azimuth Distance (km) Brightness Sun altitude
Rises 18:28:13 0° 349° (N) 3,310 7.6 -10.0°
Reaches altitude 10° 18:30:36 10° 352° (N) 2,385 6.8 -10.3°
Maximum altitude 18:35:58 68° 75° (ENE) 876 4.1 -11.2°
Drops below altitude 10° 18:41:25 10° 159° (SSE) 2,423 6.2 -12.0°
Sets 18:43:51 0° 162° (SSE) 3,367 7.0 -12.4°
